Hayward, CA

1:39 AM PDT on April 28, 2017 (GMT -0700)
Hayward Executive

Weather History for KHWD - September, 2013

Change the Weather History Date:

Saturday, September 14, 2013

  Actual Average Record
Temperature  
Mean Temperature 60 °F 67 °F  
Max Temperature 64 °F 76 °F 83 °F (2004)
Min Temperature 55 °F 57 °F 54 °F (2010)
Degree Days  
Heating Degree Days 5    
Month to date heating degree days 8  
Since 1 July heating degree days 68  
Cooling Degree Days 0    
Month to date cooling degree days 43  
Year to date cooling degree days 239  
Growing Degree Days 9 (Base 50)    
Moisture  
Dew Point 56 °F    
Average Humidity 92    
Maximum Humidity 100    
Minimum Humidity 84    
Precipitation  
Precipitation 0.00 in - 0.00 in (2017)
Month to date precipitation 0.00  
Year to date precipitation 1.49  
Since 1 July precipitation T  
Sea Level Pressure  
Sea Level Pressure 29.83 in    
Wind  
Wind Speed 8 mph (West)    
Max Wind Speed 15 mph    
Max Gust Speed 26 mph    
Visibility 10 miles    
Events      
T = Trace of Precipitation, MM = Missing Value Source: NWS Daily Summary

Daily Weather History Graph

Daily Weather History Graph

Search for Another Location

Airport or City:

Trip Planner

Search our weather history database for the weather conditions in past years. The results will help you decide how hot, cold, wet, or windy it might be!

Date:

Astronomy

Sep. 14, 2013 Rise Set
Actual Time 6:49 AM PDT 7:17 PM PDT
Civil Twilight 6:23 AM PDT 7:43 PM PDT
Nautical Twilight 5:52 AM PDT 8:14 PM PDT
Astronomical Twilight 5:20 AM PDT 8:45 PM PDT
Moon 3:59 PM PDT (9/14) 1:31 AM PDT (9/14)
Length of Visible Light 13h 20m
Length of Day
12h 27m
Waxing Gibbous, 73% of the Moon is Illuminated
Sep 14
Waxing Gibbous
Sep 19
Full
Sep 26
Last Quarter
Oct 4
New
Oct 11
First Quarter

Hourly Weather History & Observations

Time (PDT) Temp. Dew Point Humidity Pressure Visibility Wind Dir Wind Speed Gust Speed Precip Events Conditions
12:03 AM 57.2 °F 55.4 °F 94% 29.82 in 10.0 mi WNW 9.2 mph - N/A   Overcast
12:54 AM 57.0 °F 55.9 °F 96% 29.84 in 10.0 mi West 11.5 mph - N/A   Overcast
1:54 AM 55.9 °F 55.9 °F 100% 29.84 in 10.0 mi West 10.4 mph - N/A   Overcast
2:54 AM 55.9 °F 55.9 °F 100% 29.84 in 10.0 mi West 8.1 mph - N/A   Overcast
3:54 AM 55.0 °F 55.0 °F 100% 29.83 in 10.0 mi West 10.4 mph - N/A   Overcast
4:54 AM 55.0 °F 55.0 °F 100% 29.83 in 10.0 mi SW 11.5 mph - N/A   Overcast
5:54 AM 55.9 °F 55.9 °F 100% 29.84 in 10.0 mi West 9.2 mph - N/A   Overcast
6:54 AM 55.0 °F 55.0 °F 100% 29.86 in 10.0 mi West 10.4 mph - N/A   Overcast
7:54 AM 55.0 °F 55.0 °F 100% 29.86 in 10.0 mi West 9.2 mph - N/A   Overcast
8:54 AM 55.9 °F 55.9 °F 100% 29.87 in 10.0 mi West 10.4 mph - N/A   Overcast
9:54 AM 55.9 °F 55.9 °F 100% 29.88 in 10.0 mi West 11.5 mph - N/A   Overcast
10:54 AM 57.0 °F 57.0 °F 100% 29.88 in 10.0 mi WSW 6.9 mph 17.3 mph N/A   Overcast
11:54 AM 57.9 °F 57.0 °F 97% 29.88 in 10.0 mi West 12.7 mph - N/A   Overcast
12:54 PM 59.0 °F 57.0 °F 93% 29.86 in 10.0 mi West 8.1 mph - N/A   Overcast
1:39 PM 60.8 °F 57.2 °F 88% 29.83 in 10.0 mi West 6.9 mph - N/A   Overcast
1:54 PM 61.0 °F 57.0 °F 87% 29.85 in 10.0 mi WNW 5.8 mph - N/A   Overcast
2:54 PM 62.1 °F 57.0 °F 84% 29.84 in 10.0 mi WNW 6.9 mph - N/A   Overcast
3:54 PM 63.0 °F 57.0 °F 81% 29.83 in 10.0 mi West 9.2 mph - N/A   Overcast
4:54 PM 63.0 °F 57.0 °F 81% 29.81 in 10.0 mi WSW 8.1 mph - N/A   Overcast
5:02 PM 62.6 °F 57.2 °F 82% 29.78 in 10.0 mi West 4.6 mph - N/A   Overcast
5:54 PM 63.0 °F 57.0 °F 81% 29.81 in 10.0 mi WNW 10.4 mph 24.2 mph N/A   Mostly Cloudy
6:54 PM 62.1 °F 57.0 °F 84% 29.81 in 10.0 mi WNW 4.6 mph - N/A   Mostly Cloudy
7:28 PM 60.8 °F 55.4 °F 82% 29.78 in 10.0 mi WNW 8.1 mph - N/A   Scattered Clouds
7:41 PM 60.8 °F 57.2 °F 88% 29.78 in 10.0 mi West 6.9 mph - N/A   Mostly Cloudy
7:54 PM 60.1 °F 55.9 °F 86% 29.82 in 10.0 mi NW 5.8 mph - N/A   Mostly Cloudy
8:54 PM 60.1 °F 55.9 °F 86% 29.83 in 10.0 mi NW 5.8 mph - N/A   Overcast
9:54 PM 60.1 °F 55.9 °F 86% 29.83 in 10.0 mi WNW 5.8 mph - N/A   Overcast
10:54 PM 60.1 °F 55.9 °F 86% 29.84 in 10.0 mi West 8.1 mph - N/A   Overcast
11:54 PM 59.0 °F 55.9 °F 90% 29.84 in 10.0 mi West 6.9 mph - N/A   Overcast